Tracking 19149 objects as of 20-Apr-2018
HD Live streaming from Space Station
objects crossing your sky now

FENGYUN 1C DEB

Track FENGYUN 1C DEB now!
10-day predictions


NORAD ID: 31252
Int'l Code: 1999-025BMJ
Perigee: 622.3 km
Apogee: 957.1 km
Inclination: 98.6 °
Period: 100.5 minutes
Semi major axis: 7160 km
RCS: 0.0178 m2 (small)
Launch date: May 10, 1999
Source: People's Republic of China (PRC)
Launch site: Taiyaun Space Center, China (TSC)

Note: This is SATELLITE DEBRIS
aabbcc
Your satellite tracking list
Your tracking list is empty




NASA's NSSDC Master Catalog

Two Line Element Set (TLE):
1 31252U 99025BMJ 18109.87287093  .00000182  00000-0  63924-4 0  9990
2 31252  98.6245 145.5934 0233737 203.3134 155.7314 14.32748146577185
Source of the keplerian elements: AFSPC